This demonstration page uses our WeatherBlox Daily Observations layout. Learn more.

Left ArrowRight Arrow

38.88101, -77.10428

Hourly Observations for July 28, 2016

Temp ( °F °C ) Dew Point ( °F °C ) Humidity (%) Winds ( mph kmh ) Pressure ( in mb ) Visibility ( mi km ) Precip ( " mm )
12:52 am 00:52 Partly Cloudy 83 28.3 74 23.3 74 74 S 5 7 29.91 1013 10 16.0934 0 0
1:52 am 01:52 Partly Cloudy 82 27.8 76 24.4 82 82 S 7 11 29.91 1013 10 16.0934 0 0
2:52 am 02:52 Mostly Clear 82 27.8 75 23.9 79 79 Calm 29.91 1013 10 16.0934 0 0
3:15 am 03:15 Mostly Cloudy 82 27.8 75 23.9 79 79 S 3 6 29.91 1013 10 16.0934 0 0
3:52 am 03:52 Mostly Cloudy 82 27.8 75 23.9 79 79 SSW 3 6 29.9 1013 10 16.0934 0 0
4:52 am 04:52 Cloudy 82 27.8 73 22.8 74 74 Calm 29.9 1012 10 16.0934 0 0
5:24 am 05:24 Mostly Cloudy 82 27.8 73 22.8 74 74 N 3 6 29.88 1012 10 16.0934 0 0
5:52 am 05:52 Mostly Cloudy 82 27.8 73 22.8 74 74 SW 3 6 29.89 1012 10 16.0934 0 0
6:52 am 06:52 Mostly Cloudy 83 28.3 74 23.3 74 74 SW 3 6 29.9 1013 10 16.0934 0 0
7:52 am 07:52 Mostly Cloudy 84 28.9 74 23.3 72 72 SSE 3 6 29.91 1013 10 16.0934 0 0
8:52 am 08:52 Mostly Cloudy 86 30 75 23.9 70 70 S 3 6 29.91 1013 10 16.0934 0 0
9:52 am 09:52 Mostly Cloudy 87 30.6 74 23.3 65 65 S 5 7 29.89 1012 10 16.0934 0 0
10:52 am 10:52 Mostly Cloudy 88 31.1 75 23.9 66 66 S 8 13 29.9 1012 10 16.0934 0 0
11:52 am 11:52 Mostly Cloudy 88 31.1 74 23.3 63 63 S 7 11 29.89 1012 10 16.0934 0 0
12:52 pm 12:52 Mostly Cloudy 90 32.2 74 23.3 59 59 S 9 15 29.87 1012 10 16.0934 0 0
1:52 pm 13:52 Partly Cloudy 91 32.8 75 23.9 59 59 S 9 15 29.85 1011 10 16.0934 0 0
2:52 pm 14:52 Partly Cloudy 94 34.4 75 23.9 54 54 SSE 12 19 29.83 1010 10 16.0934 0 0
3:52 pm 15:52 Mostly Cloudy 93 33.9 74 23.3 54 54 SSE 10 17 29.8 1009 10 16.0934 0 0
4:23 pm 16:23 Mostly Cloudy 93 33.9 74 23.3 54 54 S 10 17 29.8 1009 10 16.0934 0 0
4:33 pm 16:33 Mostly Cloudy 90 32.2 72 22.2 56 56 N 20 31 29.83 1010 10 16.0934 0 0
4:52 pm 16:52 Mostly Cloudy 85 29.4 69 20.6 59 59 N 10 17 29.82 1010 10 16.0934 0 0
4:55 pm 16:55 Mostly Cloudy 85 29.4 70 21.1 61 61 N 13 20 29.83 1010 10 16.0934 0 0
5:14 pm 17:14 Mostly Cloudy with Thunderstorms 82 28 72 22 70 70 NNW 21 33 29.88 1012 10 16.0934 0 0
5:26 pm 17:26 Cloudy with Thunderstorms 82 28 72 22 70 70 N 16 26 29.85 1011 10 16.0934 0 0
5:36 pm 17:36 Cloudy 81 27.2 72 22.2 74 74 ENE 17 28 29.83 1010 10 16.0934 0 0
5:52 pm 17:52 Cloudy 81 27.2 73 22.8 77 77 NE 10 17 29.81 1010 10 16.0934 0 0
6:52 pm 18:52 Mostly Cloudy 80 26.7 73 22.8 79 79 NE 16 26 29.83 1010 10 16.0934 0 0
7:13 pm 19:13 Mostly Cloudy 80 26.7 73 22.8 79 79 NE 13 20 29.83 1010 10 16.0934 0 0
7:40 pm 19:40 Mostly Cloudy 81 27 73 23 79 79 NE 14 22 29.83 1010 10 16.0934 0 0
7:52 pm 19:52 Mostly Cloudy 80 26.7 72 22.2 76 76 NE 15 24 29.85 1011 10 16.0934 0 0
8:27 pm 20:27 Cloudy with Light Rain 80 26.7 73 22.8 79 79 ESE 15 24 29.85 1011 10 16.0934 0 0.0254
8:35 pm 20:35 Cloudy with Light Rain 79 26.1 73 22.8 82 82 ENE 9 15 29.83 1010 10 16.0934 0 0.0254
8:52 pm 20:52 Cloudy with Light Thunderstorms 79 26.1 74 23.3 85 85 NNE 9 15 29.85 1011 10 16.0934 0 0.0254
8:58 pm 20:58 Cloudy with Light Thunderstorms 79 26 73 23 84 84 NNE 9 15 29.85 1011 10 16.0934 0 0
9:07 pm 21:07 Cloudy with Light Thunderstorms 78 25.6 74 23.3 87 87 N 14 22 29.85 1011 6 9.65604 0.02 0.508
9:22 pm 21:22 Cloudy with Light Thunderstorms 79 26 73 23 84 84 NNE 8 13 29.85 1011 8 12.87472 0 0
9:33 pm 21:33 Cloudy with Light Rain 78 25.6 75 23.9 90 90 N 10 17 29.85 1011 10 16.0934 0.08 2.032
9:52 pm 21:52 Cloudy with Light Rain 78 25.6 75 23.9 90 90 NE 9 15 29.84 1010 10 16.0934 0.08 2.032
10:18 pm 22:18 Cloudy 77 25 75 24 94 94 E 6 9 29.85 1011 10 16.0934 0 0
10:43 pm 22:43 Cloudy with Light Rain 78 25.6 75 23.9 90 90 ENE 7 11 29.85 1011 10 16.0934 0 0.0254
10:52 pm 22:52 Cloudy 78 25.6 75 23.9 90 90 NNE 7 11 29.85 1011 10 16.0934 0 0.0254
10:59 pm 22:59 Cloudy with Light Rain 78 25.6 74 23.3 87 87 N 8 13 29.85 1011 10 16.0934 0 0.0254
11:37 pm 23:37 Cloudy with Rain 78 25.6 75 23.9 90 90 ENE 14 22 29.83 1010 5 8.0467 0.06 1.524
11:52 pm 23:52 Cloudy with Light Rain 77 25 75 23.9 94 94 E 6 9 29.84 1011 5 8.0467 0.18 4.572

Powered by AerisWeather